Wind_Speed
21 19 15 15 13 27 26 29 28 26 28 26 27 28 29 21 20 25 27 21 20 23 24 23 19 18 15 12 10 7 5 2 6 7 9 10 11 10 9 8 7 7 8 9 11 12 13 13 11
20 24 22 16 13 17 25 25 26 25 28 29 36 33 35 22 27 29 30 30 27 27 24 19 16 14 11 12 9 7 6 6 5 6 6 5 6 7 7 7 7 7 8 9 10 10 12 13 14
23 16 18 17 21 22 27 29 31 22 30 21 20 15 22 29 36 34 31 30 26 25 20 15 13 11 11 7 4 4 6 4 2 2 2 4 5 6 6 8 9 10 11 13 13 15 13 14 15
17 26 13 18 35 28 26 29 35 29 19 24 17 17 23 31 32 32 29 27 22 20 14 13 10 8 4 3 6 5 5 3 2 4 5 6 7 7 9 10 12 12 12 14 14 15 16 15 16
16 24 23 26 20 31 29 25 29 18 18 14 18 24 29 30 30 27 25 19 14 13 12 9 4 4 6 6 4 3 3 3 5 6 8 10 11 11 12 14 15 17 17 18 17 18 17 17 17
11 20 26 22 17 15 22 16 19 13 16 20 25 25 22 27 22 20 17 12 12 12 8 5 8 6 6 5 3 3 6 8 8 10 11 13 15 15 16 16 18 19 21 21 21 22 22 22 23
20 27 26 25 18 16 14 15 17 12 16 23 22 20 33 16 15 17 15 14 13 9 8 10 9 7 5 4 6 8 10 11 12 13 14 16 19 19 21 22 22 23 24 23 23 23 23 23 24
19 28 31 26 28 15 13 14 21 22 24 24 24 15 12 8 6 8 9 11 12 11 10 9 6 7 7 9 11 12 13 14 15 16 18 20 23 23 24 25 25 23 23 24 23 24 23 23 23
19 19 23 22 24 23 8 18 26 22 21 14 8 9 8 7 7 11 10 10 9 8 8 7 8 11 11 12 13 13 14 16 18 20 21 23 24 25 25 25 25 25 25 26 26 26 29 31 29
27 22 25 13 20 20 11 12 18 17 16 10 11 9 9 7 9 9 8 5 5 6 9 11 13 14 11 12 12 14 17 19 20 22 22 22 23 24 25 26 27 27 29 31 32 32 33 35 33
19 14 14 19 10 7 12 18 17 7 4 4 6 7 7 5 6 5 6 7 8 10 13 15 14 13 11 12 15 16 19 23 25 25 25 26 26 28 29 30 31 32 35 37 37 37 36 34 34
19 13 8 12 10 10 15 11 5 4 2 7 5 5 4 4 4 4 6 7 8 11 16 17 15 16 17 16 17 20 23 26 28 27 28 29 31 33 34 34 36 35 35 36 36 35 34 32 30
10 11 10 12 14 12 12 8 6 7 8 7 6 4 3 4 5 6 6 8 10 12 16 21 18 20 19 17 14 19 26 34 30 24 30 30 33 37 38 40 39 38 36 35 35 34 31 30 28
10 11 16 20 15 7 7 5 6 5 3 7 8 6 6 8 6 7 8 10 12 13 14 15 18 13 17 15 33 33 33 31 29 32 32 35 40 38 40 43 42 41 39 39 37 36 35 33 34
16 10 13 12 9 8 7 6 4 3 2 2 5 4 4 7 8 10 14 16 17 19 18 19 14 17 21 22 26 36 32 29 33 39 41 46 43 43 44 42 41 41 41 43 45 45 43 42 40
20 16 18 15 9 8 4 1 5 5 4 2 0 5 7 9 9 12 17 15 16 22 24 27 24 26 28 31 30 34 37 40 41 41 43 47 45 43 39 39 43 45 46 45 46 47 48 49 50
16 22 14 12 7 1 1 0 10 3 2 3 7 10 10 13 13 14 14 17 20 24 27 25 24 35 34 36 34 39 40 38 41 43 50 49 49 45 45 43 43 44 45 48 50 53 55 57 57
13 12 11 10 6 4 9 7 6 3 3 5 7 11 16 18 21 20 19 20 24 27 27 29 35 38 36 39 43 43 38 44 44 48 48 50 49 49 49 50 50 51 52 54 56 58 61 64 66
6 5 7 7 3 3 12 14 14 9 5 9 11 15 19 19 22 24 25 27 31 29 30 36 37 32 41 49 48 38 43 45 48 50 54 52 52 53 54 56 57 58 60 62 64 66 67 69 71
11 9 8 4 4 9 16 16 15 17 16 13 14 15 16 23 25 25 25 30 28 34 36 37 42 48 50 47 44 46 46 47 49 49 55 56 57 58 60 64 67 69 71 74 75 76 76 77 78
13 16 13 12 7 11 12 12 14 17 19 16 12 13 20 23 21 22 24 26 34 38 41 44 46 47 47 48 49 48 47 48 50 53 56 60 61 65 67 70 73 76 79 81 83 83 84 83 83
9 16 19 16 12 14 15 17 20 21 22 20 17 22 20 24 26 24 27 33 38 40 41 42 44 46 47 47 46 46 47 49 52 56 58 61 64 67 71 74 78 81 84 85 86 85 85 85 84
12 14 15 16 15 15 18 22 26 25 24 22 22 17 18 24 26 27 37 39 42 41 41 43 44 44 45 45 45 46 48 50 52 56 61 65 69 72 78 80 83 84 86 87 85 84 84 85 86
11 12 14 15 15 16 20 24 29 29 24 23 25 26 29 34 31 35 39 40 39 42 40 37 41 42 42 43 43 45 47 52 58 63 67 72 76 80 83 87 90 91 90 87 84 84 84 84 85
9 11 12 14 15 19 19 23 29 29 31 29 30 32 36 36 37 36 38 40 42 40 34 36 38 39 42 43 43 47 54 60 65 70 76 80 85 88 88 89 89 89 86 84 84 86 87 88 89
2 1 2 5 6 11 16 20 24 28 32 34 38 34 31 38 34 40 46 46 38 32 31 32 33 34 37 43 50 56 63 68 73 77 81 84 87 89 90 90 87 85 87 88 89 90 90 88 87
3 2 2 3 7 11 16 20 24 28 32 35 33 33 32 44 43 44 35 40 37 33 31 33 36 40 46 53 60 65 70 74 78 82 85 87 89 89 89 91 89 88 90 88 86 80 81 82 77
5 6 9 10 9 12 14 18 21 25 29 32 35 37 40 39 31 29 34 36 33 35 38 42 45 50 56 61 67 71 75 79 84 87 89 90 88 86 88 89 89 88 79 65 68 77 74 66 63
5 5 8 11 15 17 20 19 23 26 28 29 28 28 29 32 35 38 36 36 39 42 45 47 51 56 62 67 71 75 79 83 85 88 89 89 89 93 90 91 88 78 62 62 72 66 63 50 46
1 6 10 13 15 16 20 23 25 27 28 29 29 31 30 28 34 42 40 43 45 47 48 52 57 63 68 71 74 79 83 87 90 91 93 94 92 96 89 77 77 66 65 67 63 64 46 45 43
Wind_Direction
275 205 185 209 237 182 195 203 209 212 219 208 225 239 261 260 279 280 271 277 263 276 284 290 298 292 285 280 279 270 271 220 134 95 72 57 49 49 41 29 17 7 352 351 348 347 349 344 328
270 204 185 188 191 201 207 215 225 223 223 218 214 235 241 246 270 270 268 271 270 273 284 292 286 284 275 274 265 250 224 158 111 78 64 53 36 25 13 351 332 325 327 321 325 322 324 332 337
279 207 181 183 178 194 207 211 216 210 230 214 213 243 262 269 272 269 258 261 265 269 283 276 277 270 273 270 224 187 162 139 114 52 339 338 339 343 339 323 318 317 318 314 312 312 311 311 311
268 233 187 205 199 194 219 219 222 227 238 246 263 264 265 279 267 258 255 254 259 268 265 267 257 266 259 154 133 152 171 194 250 284 302 299 303 307 307 299 296 299 300 299 299 300 303 304 302
278 178 176 203 204 196 205 229 239 250 250 269 266 275 278 274 259 253 251 252 254 249 251 238 236 167 148 151 147 173 211 257 279 289 295 297 294 298 296 297 299 299 293 290 290 287 287 288 289
235 165 179 198 189 193 196 216 256 258 279 276 268 280 272 259 251 241 241 234 235 240 234 190 175 170 181 192 214 260 279 279 287 287 291 299 299 301 297 297 298 295 291 289 287 287 286 283 281
191 167 197 199 197 209 184 183 248 253 261 268 278 266 263 249 241 238 226 224 220 209 183 179 188 200 221 252 270 278 281 284 291 295 299 296 296 297 296 298 298 297 294 289 286 286 288 287 285
187 175 192 212 206 197 211 233 242 264 279 288 268 246 232 201 201 183 177 183 176 173 182 198 215 239 256 268 273 276 282 296 299 300 300 301 297 298 299 298 302 301 298 294 292 292 293 293 292
183 195 201 220 222 230 241 247 260 271 294 285 213 224 185 174 153 137 145 163 174 188 213 229 248 254 261 271 281 290 293 296 299 301 299 300 303 307 308 306 303 298 295 292 292 295 299 300 297
181 198 217 225 199 203 237 290 293 277 293 275 216 202 179 166 160 149 146 183 215 231 246 249 253 256 269 278 283 288 294 296 291 294 301 304 308 309 305 304 307 308 306 303 300 299 300 301 300
174 176 190 207 218 269 304 302 277 279 232 208 153 163 167 162 165 162 187 217 230 252 260 257 264 275 274 275 280 290 292 291 296 299 302 306 311 312 311 311 307 307 305 303 301 298 298 298 298
158 151 203 225 227 240 270 278 185 181 135 134 128 151 159 213 218 230 240 246 235 246 255 262 273 284 278 270 284 304 301 302 300 305 308 311 312 311 312 311 309 306 303 301 297 294 295 294 291
159 165 199 227 241 264 286 199 179 169 166 159 157 181 218 228 231 231 258 266 274 272 283 296 302 298 285 280 299 306 296 308 292 302 313 307 315 312 311 310 307 306 305 301 296 293 290 288 286
205 190 213 228 244 214 185 191 183 172 160 137 148 181 225 254 267 286 279 282 280 268 276 295 303 328 331 274 290 291 303 309 299 312 314 311 313 310 311 311 311 310 309 306 305 301 296 293 288
190 174 143 154 186 182 176 192 209 205 171 176 174 197 251 249 261 269 285 298 300 309 305 312 272 322 319 315 300 304 311 315 308 309 315 312 313 315 313 312 312 311 308 308 307 304 298 291 286
171 154 141 149 158 163 172 313 171 214 171 176 342 283 272 275 283 286 285 312 312 307 316 322 305 321 315 315 315 312 314 310 311 302 306 307 311 311 311 309 310 310 310 309 308 305 302 300 298
148 164 144 108 72 136 331 350 186 177 127 9 315 311 311 316 311 313 304 309 314 316 313 315 300 315 312 313 318 316 310 304 307 299 302 309 312 312 310 308 307 305 306 305 303 302 301 301 298
148 148 139 100 29 33 311 312 316 338 23 290 313 308 311 312 317 317 308 309 312 314 318 314 313 313 311 312 311 309 300 304 301 297 306 308 309 311 310 308 307 307 305 304 303 301 300 298 295
168 181 151 119 224 297 285 294 298 315 308 311 305 303 307 321 317 315 319 313 314 317 314 314 312 291 294 306 310 302 299 300 299 305 305 308 310 308 306 307 306 304 303 302 302 300 298 296 295
186 212 185 170 312 274 274 282 288 296 296 294 296 296 307 318 317 322 315 309 306 310 308 303 297 300 304 303 299 297 299 300 304 303 303 305 306 307 307 308 308 307 304 302 300 298 296 295 292
214 212 220 223 264 258 268 269 274 278 277 286 284 288 291 301 305 305 300 302 303 300 297 297 297 298 295 294 299 300 302 305 302 303 305 307 307 308 308 306 304 304 302 301 300 297 295 292 290
191 216 233 248 243 242 267 271 270 270 274 288 310 298 298 288 287 276 285 298 298 295 294 294 293 292 295 295 297 298 300 301 303 304 303 303 303 303 303 303 301 299 298 296 294 292 290 289 288
216 217 225 234 236 242 254 259 262 266 278 293 292 286 271 293 279 273 297 306 302 300 301 298 295 292 291 295 297 298 299 299 299 299 300 301 302 302 300 299 298 298 297 296 295 293 290 289 288
236 243 247 247 249 248 253 264 273 279 278 275 271 282 283 280 283 280 290 294 294 299 300 292 284 286 290 292 294 298 301 302 300 301 302 302 301 302 304 305 306 304 302 299 296 293 291 288 286
248 246 251 256 253 250 251 254 267 277 282 279 281 277 281 291 290 292 297 296 297 296 290 287 291 292 296 302 302 300 301 303 305 306 307 308 308 307 306 304 302 300 298 296 294 292 290 288 285
167 161 265 279 270 258 261 264 262 270 276 274 276 289 297 290 289 302 300 298 296 293 289 286 289 293 299 304 305 306 307 309 309 308 307 307 307 306 305 303 302 301 300 297 295 292 290 287 286
96 60 11 302 276 271 277 281 282 286 285 290 293 295 287 291 295 296 292 301 304 306 306 304 307 309 311 312 311 311 310 309 308 308 308 308 308 308 305 306 305 302 300 297 297 293 294 293 290
98 81 54 38 10 337 329 311 307 299 297 297 293 291 292 295 300 297 300 297 301 307 310 312 313 314 313 311 310 309 308 310 310 310 309 308 308 305 305 303 305 303 301 299 296 297 302 298 289
82 47 30 26 25 9 346 340 328 318 312 304 304 305 300 305 305 306 301 307 308 312 312 312 311 312 310 308 308 309 310 310 309 308 309 311 310 310 311 308 306 306 298 299 307 307 310 306 299
353 7 355 349 353 358 353 351 349 342 339 328 318 314 308 292 297 299 304 310 310 310 311 311 310 309 308 308 309 310 311 310 310 313 314 314 314 313 309 301 303 297 296 290 308 315 312 304 298
Height
5839 5837 5842 5845 5847 5845 5847 5848 5848 5854 5855 5858 5860 5861 5861 5863 5864 5865 5862 5862 5860 5859 5858 5858 5857 5856 5854 5854 5854 5853 5852 5851 5850 5850 5849 5848 5846 5844 5842 5840 5838 5836 5834 5831 5830 5827 5824 5820 5817
5833 5833 5836 5841 5846 5844 5846 5845 5847 5851 5852 5854 5855 5856 5858 5862 5863 5860 5859 5857 5856 5855 5854 5855 5854 5853 5852 5852 5851 5851 5852 5851 5851 5850 5850 5848 5846 5844 5843 5841 5839 5837 5833 5830 5828 5826 5824 5819 5817
5833 5832 5836 5837 5841 5843 5843 5840 5840 5847 5851 5851 5854 5855 5858 5860 5858 5856 5854 5853 5852 5851 5851 5851 5851 5851 5850 5850 5851 5851 5851 5851 5850 5849 5848 5846 5845 5844 5843 5840 5839 5835 5832 5829 5826 5824 5821 5818 5815
5827 5828 5833 5833 5836 5840 5839 5839 5839 5846 5847 5848 5848 5852 5855 5856 5853 5850 5849 5847 5848 5849 5850 5850 5849 5849 5850 5850 5850 5851 5850 5849 5847 5847 5846 5845 5843 5841 5839 5838 5836 5833 5829 5827 5824 5822 5819 5816 5814
5822 5824 5831 5830 5835 5838 5838 5836 5838 5845 5846 5846 5848 5848 5850 5849 5848 5846 5843 5843 5845 5846 5847 5847 5848 5849 5850 5850 5850 5850 5848 5847 5847 5845 5844 5842 5840 5839 5838 5834 5832 5830 5827 5824 5822 5819 5816 5814 5812
5821 5824 5828 5830 5832 5832 5831 5835 5836 5842 5843 5843 5845 5848 5848 5845 5843 5841 5840 5842 5843 5843 5845 5846 5848 5849 5849 5849 5848 5847 5847 5845 5845 5843 5840 5839 5838 5837 5835 5832 5828 5826 5823 5820 5818 5815 5812 5811 5809
5822 5824 5825 5829 5832 5829 5833 5833 5835 5842 5842 5842 5846 5846 5842 5843 5839 5838 5839 5840 5841 5843 5844 5845 5846 5847 5848 5847 5846 5844 5844 5843 5842 5839 5837 5836 5834 5833 5830 5827 5824 5821 5818 5816 5813 5810 5807 5805 5803
5821 5822 5825 5828 5828 5825 5832 5832 5834 5836 5837 5839 5843 5838 5839 5839 5837 5836 5837 5839 5841 5842 5843 5844 5845 5845 5844 5844 5843 5841 5840 5840 5838 5835 5834 5832 5830 5826 5823 5822 5820 5816 5812 5811 5808 5805 5802 5800 5798
5821 5822 5824 5825 5826 5827 5827 5831 5831 5831 5835 5835 5838 5836 5836 5837 5837 5836 5837 5838 5840 5840 5841 5841 5842 5841 5841 5841 5840 5839 5837 5835 5833 5833 5831 5828 5825 5822 5818 5816 5814 5812 5809 5806 5804 5800 5796 5794 5792
5818 5820 5822 5825 5825 5826 5829 5829 5832 5833 5831 5832 5834 5835 5835 5836 5837 5837 5838 5839 5839 5840 5840 5839 5838 5837 5839 5838 5835 5834 5833 5832 5830 5829 5826 5823 5821 5817 5816 5813 5810 5807 5804 5802 5799 5795 5791 5787 5785
5817 5817 5821 5824 5825 5826 5831 5832 5833 5833 5834 5833 5833 5834 5835 5835 5836 5837 5838 5839 5840 5838 5836 5835 5835 5835 5835 5834 5833 5831 5829 5827 5825 5823 5820 5816 5814 5812 5809 5807 5804 5802 5799 5796 5792 5789 5786 5783 5779
5815 5819 5821 5823 5825 5829 5832 5831 5833 5833 5835 5834 5833 5833 5833 5835 5835 5836 5837 5836 5837 5837 5834 5835 5838 5837 5833 5830 5829 5828 5826 5823 5820 5816 5813 5810 5807 5804 5802 5798 5796 5794 5791 5788 5785 5783 5780 5777 5774
5815 5820 5821 5822 5824 5827 5828 5829 5832 5833 5834 5834 5833 5832 5832 5834 5834 5835 5835 5834 5835 5834 5832 5830 5832 5832 5831 5830 5826 5825 5822 5819 5813 5810 5808 5805 5802 5798 5794 5789 5787 5785 5781 5779 5778 5776 5773 5770 5768
5816 5822 5822 5823 5825 5826 5828 5829 5830 5831 5831 5832 5832 5833 5833 5833 5833 5833 5834 5833 5832 5832 5832 5831 5828 5824 5822 5825 5820 5817 5813 5807 5805 5803 5799 5798 5796 5791 5788 5782 5779 5776 5772 5770 5768 5765 5765 5764 5760
5818 5821 5821 5823 5825 5826 5827 5827 5827 5827 5828 5830 5831 5832 5831 5832 5832 5831 5830 5829 5828 5827 5827 5826 5821 5818 5818 5818 5814 5809 5803 5799 5798 5796 5792 5790 5788 5783 5778 5774 5771 5767 5764 5761 5758 5756 5754 5752 5750
5818 5820 5821 5823 5824 5825 5826 5826 5825 5826 5827 5828 5829 5828 5829 5829 5830 5830 5826 5826 5823 5821 5818 5819 5815 5813 5812 5810 5807 5802 5798 5794 5792 5789 5785 5783 5779 5776 5772 5768 5762 5758 5754 5751 5748 5744 5743 5741 5738
5817 5820 5821 5821 5823 5823 5823 5824 5826 5826 5825 5825 5825 5825 5824 5823 5824 5824 5822 5821 5819 5817 5815 5813 5803 5807 5804 5802 5799 5796 5792 5789 5786 5782 5777 5771 5767 5763 5760 5756 5751 5748 5744 5740 5736 5732 5729 5727 5725
5816 5818 5818 5819 5823 5822 5820 5821 5823 5823 5824 5825 5824 5821 5820 5819 5819 5818 5818 5818 5816 5814 5811 5810 5807 5801 5797 5795 5793 5789 5785 5781 5777 5773 5769 5763 5757 5751 5745 5740 5736 5733 5729 5725 5722 5719 5715 5711 5709
5813 5816 5817 5818 5821 5821 5819 5819 5819 5821 5822 5821 5821 5819 5817 5818 5816 5814 5811 5811 5808 5808 5806 5803 5799 5798 5792 5788 5784 5780 5777 5773 5767 5761 5756 5751 5744 5739 5734 5730 5726 5721 5717 5712 5708 5704 5699 5695 5690
5814 5816 5816 5818 5821 5822 5818 5818 5818 5818 5818 5819 5819 5818 5817 5815 5812 5810 5809 5806 5804 5802 5799 5797 5793 5788 5785 5781 5777 5774 5768 5763 5757 5750 5744 5739 5733 5728 5723 5716 5710 5704 5698 5693 5688 5683 5678 5672 5667
5814 5815 5817 5819 5821 5818 5816 5816 5816 5815 5814 5816 5817 5816 5814 5812 5810 5808 5806 5806 5803 5800 5797 5793 5788 5783 5778 5773 5767 5762 5758 5753 5747 5739 5733 5727 5722 5715 5709 5703 5695 5688 5680 5674 5668 5661 5653 5648 5643
5813 5814 5815 5816 5819 5817 5814 5813 5811 5811 5812 5813 5814 5814 5812 5808 5807 5805 5803 5801 5798 5793 5789 5784 5779 5773 5768 5763 5759 5754 5750 5745 5739 5732 5726 5719 5713 5705 5696 5687 5679 5672 5665 5657 5649 5640 5631 5622 5616
5811 5812 5813 5814 5814 5815 5812 5809 5805 5808 5808 5808 5808 5808 5808 5805 5803 5800 5795 5792 5788 5785 5781 5777 5770 5764 5758 5755 5752 5747 5742 5737 5730 5723 5716 5707 5698 5690 5680 5671 5662 5653 5643 5632 5623 5614 5605 5597 5590
5809 5810 5810 5810 5811 5810 5807 5806 5802 5802 5803 5803 5803 5803 5801 5799 5798 5796 5793 5790 5784 5778 5774 5768 5762 5759 5755 5750 5745 5740 5734 5727 5720 5711 5702 5691 5681 5670 5659 5646 5634 5624 5615 5605 5596 5587 5579 5572 5565
5805 5805 5806 5806 5806 5805 5804 5801 5797 5797 5796 5797 5795 5795 5793 5792 5787 5785 5784 5780 5775 5770 5764 5757 5753 5748 5744 5740 5734 5728 5721 5712 5703 5693 5682 5670 5658 5648 5639 5627 5615 5603 5592 5583 5573 5562 5550 5541 5534
5803 5803 5803 5803 5802 5802 5800 5798 5797 5794 5790 5788 5786 5788 5788 5783 5779 5776 5769 5765 5762 5760 5757 5752 5747 5743 5737 5730 5722 5714 5705 5694 5686 5676 5666 5654 5642 5629 5616 5603 5591 5579 5566 5555 5545 5535 5525 5514 5503
5801 5802 5802 5800 5799 5798 5797 5795 5791 5788 5785 5780 5779 5779 5777 5773 5773 5767 5760 5754 5750 5747 5745 5741 5735 5729 5723 5715 5706 5697 5688 5679 5669 5659 5647 5634 5620 5606 5590 5578 5567 5555 5543 5529 5518 5509 5497 5486 5477
5801 5801 5800 5798 5796 5793 5792 5789 5787 5784 5780 5776 5774 5773 5770 5764 5764 5760 5755 5749 5745 5740 5735 5728 5721 5715 5710 5702 5692 5683 5674 5664 5651 5638 5626 5616 5602 5586 5572 5557 5544 5528 5516 5507 5499 5489 5477 5463 5455
5799 5798 5797 5796 5795 5791 5786 5786 5781 5777 5775 5773 5770 5768 5763 5757 5752 5748 5744 5740 5736 5730 5725 5719 5713 5706 5698 5689 5680 5670 5659 5648 5635 5623 5609 5595 5578 5561 5544 5527 5515 5502 5495 5487 5477 5468 5455 5447 5441
5796 5795 5794 5793 5792 5789 5786 5783 5777 5773 5768 5764 5762 5758 5755 5752 5748 5741 5736 5732 5726 5722 5717 5709 5702 5694 5685 5675 5666 5654 5642 5628 5613 5598 5582 5567 5552 5535 5522 5506 5496 5486 5479 5471 5463 5454 5444 5438 5432